Time,TemperatureF,DewpointF,PressureIn,WindDirection,WindDirectionDegrees,WindSpeedMPH,WindSpeedGustMPH,Humidity,HourlyPrecipIn,Conditions,Clouds,dailyrainin,SoftwareType,DateUTC
2013-03-31 00:03:00,27.0,-99.9,29.78,SW,217,0.0,-999.0,71,-99.99,,,-99.99,,2013-03-31 04:03:00,
2013-03-31 00:13:00,27.0,19.0,29.78,SW,217,0.0,-999.0,71,-99.99,,,-99.99,,2013-03-31 04:13:00,
2013-03-31 00:23:00,27.0,19.0,29.76,SW,217,0.0,-999.0,72,-99.99,,,-99.99,,2013-03-31 04:23:00,
2013-03-31 00:33:00,26.0,18.0,29.79,SW,217,0.0,-999.0,72,-99.99,,,-99.99,,2013-03-31 04:33:00,
2013-03-31 00:42:00,26.0,18.0,29.79,SW,217,0.0,-999.0,72,-99.99,,,-99.99,,2013-03-31 04:42:00,
2013-03-31 00:53:00,26.0,19.0,29.76,SW,217,0.0,-999.0,73,-99.99,,,-99.99,,2013-03-31 04:53:00,
2013-03-31 01:02:00,25.0,18.0,29.78,SW,217,0.0,-999.0,75,-99.99,,,-99.99,,2013-03-31 05:02:00,
2013-03-31 01:13:00,25.0,18.0,29.78,SW,217,0.0,-999.0,75,-99.99,,,-99.99,,2013-03-31 05:13:00,
2013-03-31 01:22:00,26.0,19.0,29.75,SW,217,0.0,-999.0,76,-99.99,,,-99.99,,2013-03-31 05:22:00,
2013-03-31 01:32:00,25.0,19.0,29.78,SW,217,0.0,-999.0,77,-99.99,,,-99.99,,2013-03-31 05:32:00,
2013-03-31 01:42:00,25.0,19.0,29.78,SW,217,0.0,-999.0,77,-99.99,,,-99.99,,2013-03-31 05:42:00,
2013-03-31 01:53:00,25.0,19.0,29.76,SW,217,0.0,-999.0,78,-99.99,,,-99.99,,2013-03-31 05:53:00,
2013-03-31 02:02:00,24.0,18.0,29.78,SW,217,0.0,-999.0,78,-99.99,,,-99.99,,2013-03-31 06:02:00,
2013-03-31 02:12:00,24.0,18.0,29.78,SW,217,0.0,-999.0,78,-99.99,,,-99.99,,2013-03-31 06:12:00,
2013-03-31 02:23:00,25.0,20.0,29.76,SW,217,0.0,-999.0,81,-99.99,,,-99.99,,2013-03-31 06:23:00,
2013-03-31 02:33:00,24.0,19.0,29.79,SW,217,0.0,-999.0,82,-99.99,,,-99.99,,2013-03-31 06:33:00,
2013-03-31 02:42:00,24.0,19.0,29.79,SW,217,0.0,-999.0,82,-99.99,,,-99.99,,2013-03-31 06:42:00,
2013-03-31 02:53:00,24.0,19.0,29.76,SW,217,0.0,-999.0,82,-99.99,,,-99.99,,2013-03-31 06:53:00,
2013-03-31 03:02:00,23.0,18.0,29.80,SW,217,0.0,-999.0,82,-99.99,,,-99.99,,2013-03-31 07:02:00,
2013-03-31 03:12:00,23.0,18.0,29.80,SW,217,0.0,-999.0,82,-99.99,,,-99.99,,2013-03-31 07:12:00,
2013-03-31 03:22:00,23.0,19.0,29.77,SW,217,0.0,-999.0,83,-99.99,,,-99.99,,2013-03-31 07:22:00,
2013-03-31 03:33:00,22.0,18.0,29.79,SW,217,0.0,-999.0,84,-99.99,,,-99.99,,2013-03-31 07:33:00,
2013-03-31 03:43:00,22.0,18.0,29.79,SW,217,0.0,-999.0,84,-99.99,,,-99.99,,2013-03-31 07:43:00,
2013-03-31 03:53:00,22.0,18.0,29.79,SW,217,0.0,-999.0,85,-99.99,,,-99.99,,2013-03-31 07:53:00,
2013-03-31 04:02:00,22.0,18.0,29.79,SW,217,0.0,-999.0,85,-99.99,,,-99.99,,2013-03-31 08:02:00,
2013-03-31 04:12:00,22.0,18.0,29.79,SW,217,0.0,-999.0,85,-99.99,,,-99.99,,2013-03-31 08:12:00,
2013-03-31 04:22:00,23.0,19.0,29.76,SW,217,0.0,-999.0,86,-99.99,,,-99.99,,2013-03-31 08:22:00,
2013-03-31 04:32:00,22.0,18.0,29.79,SW,217,0.0,-999.0,86,-99.99,,,-99.99,,2013-03-31 08:32:00,
2013-03-31 04:42:00,22.0,18.0,29.79,SW,217,0.0,-999.0,86,-99.99,,,-99.99,,2013-03-31 08:42:00,
2013-03-31 04:52:00,22.0,19.0,29.76,SW,217,0.0,-999.0,88,-99.99,,,-99.99,,2013-03-31 08:52:00,
2013-03-31 05:02:00,21.0,18.0,29.79,SW,217,0.0,-999.0,88,-99.99,,,-99.99,,2013-03-31 09:02:00,
2013-03-31 05:12:00,21.0,18.0,29.79,SW,217,0.0,-999.0,88,-99.99,,,-99.99,,2013-03-31 09:12:00,
2013-03-31 05:22:00,22.0,19.0,29.76,SW,217,0.0,-999.0,89,-99.99,,,-99.99,,2013-03-31 09:22:00,
2013-03-31 05:33:00,21.0,18.0,29.78,SW,217,0.0,-999.0,89,-99.99,,,-99.99,,2013-03-31 09:33:00,
2013-03-31 05:43:00,21.0,18.0,29.78,SW,217,0.0,-999.0,89,-99.99,,,-99.99,,2013-03-31 09:43:00,
2013-03-31 05:53:00,21.0,19.0,29.76,SW,217,0.0,-999.0,90,-99.99,,,-99.99,,2013-03-31 09:53:00,
2013-03-31 06:03:00,21.0,19.0,29.78,SW,217,0.0,-999.0,91,-99.99,,,-99.99,,2013-03-31 10:03:00,
2013-03-31 06:13:00,21.0,19.0,29.78,SW,217,0.0,-999.0,91,-99.99,,,-99.99,,2013-03-31 10:13:00,
2013-03-31 06:24:00,21.0,19.0,29.75,SW,217,0.0,-999.0,91,-99.99,,,-99.99,,2013-03-31 10:24:00,
2013-03-31 06:33:00,20.0,18.0,29.78,SW,217,0.0,-999.0,91,-99.99,,,-99.99,,2013-03-31 10:33:00,
2013-03-31 06:42:00,20.0,18.0,29.78,SW,217,0.0,-999.0,91,-99.99,,,-99.99,,2013-03-31 10:42:00,
2013-03-31 06:53:00,20.0,18.0,29.75,SW,217,0.0,-999.0,92,-99.99,,,-99.99,,2013-03-31 10:53:00,
2013-03-31 07:03:00,20.0,18.0,29.78,SW,217,0.0,-999.0,92,-99.99,,,-99.99,,2013-03-31 11:03:00,
2013-03-31 07:12:00,20.0,18.0,29.78,SW,217,0.0,-999.0,92,-99.99,,,-99.99,,2013-03-31 11:12:00,
2013-03-31 07:23:00,21.0,19.0,29.74,SW,217,0.0,-999.0,93,-99.99,,,-99.99,,2013-03-31 11:23:00,
2013-03-31 07:33:00,21.0,19.0,29.77,SW,217,0.0,-999.0,93,-99.99,,,-99.99,,2013-03-31 11:33:00,
2013-03-31 07:43:00,21.0,19.0,29.77,SW,217,0.0,-999.0,93,-99.99,,,-99.99,,2013-03-31 11:43:00,
2013-03-31 07:53:00,24.0,21.0,29.74,NNW,334,0.0,-999.0,89,-99.99,,,-99.99,,2013-03-31 11:53:00,
2013-03-31 08:03:00,23.0,20.0,29.77,NNW,334,0.0,-999.0,88,-99.99,,,-99.99,,2013-03-31 12:03:00,
2013-03-31 08:12:00,23.0,20.0,29.77,NNW,334,0.0,-999.0,88,-99.99,,,-99.99,,2013-03-31 12:12:00,
2013-03-31 08:22:00,26.0,22.0,29.73,NNW,334,0.0,-999.0,85,-99.99,,,-99.99,,2013-03-31 12:22:00,
2013-03-31 08:33:00,27.0,22.0,29.76,NNW,334,0.0,-999.0,81,-99.99,,,-99.99,,2013-03-31 12:33:00,
2013-03-31 08:42:00,27.0,22.0,29.76,NNW,334,0.0,-999.0,81,-99.99,,,-99.99,,2013-03-31 12:42:00,
2013-03-31 08:53:00,29.0,23.0,29.73,NNW,334,0.0,-999.0,77,-99.99,,,-99.99,,2013-03-31 12:53:00,
2013-03-31 09:02:00,30.0,22.0,29.75,NNW,334,0.0,-999.0,72,-99.99,,,-99.99,,2013-03-31 13:02:00,
2013-03-31 09:12:00,30.0,22.0,29.75,NNW,334,0.0,-999.0,72,-99.99,,,-99.99,,2013-03-31 13:12:00,
2013-03-31 09:23:00,31.0,24.0,29.75,ESE,110,0.0,-999.0,74,-99.99,,,-99.99,,2013-03-31 13:23:00,
2013-03-31 09:32:00,31.0,24.0,29.75,ESE,110,0.0,-999.0,74,-99.99,,,-99.99,,2013-03-31 13:32:00,
2013-03-31 09:42:00,31.0,24.0,29.75,ESE,110,0.0,-999.0,74,-99.99,,,-99.99,,2013-03-31 13:42:00,
2013-03-31 09:53:00,35.0,24.0,29.71,ESE,104,0.0,-999.0,64,-99.99,,,-99.99,,2013-03-31 13:53:00,
2013-03-31 10:02:00,35.0,24.0,29.74,ENE,70,0.0,-999.0,63,-99.99,,,-99.99,,2013-03-31 14:02:00,
2013-03-31 10:12:00,35.0,24.0,29.74,ENE,70,0.0,-999.0,63,-99.99,,,-99.99,,2013-03-31 14:12:00,
2013-03-31 10:22:00,38.0,24.0,29.70,East,82,0.0,-999.0,56,-99.99,,,-99.99,,2013-03-31 14:22:00,
2013-03-31 10:33:00,38.0,22.0,29.72,West,271,0.0,-999.0,52,-99.99,,,-99.99,,2013-03-31 14:33:00,
2013-03-31 10:43:00,38.0,22.0,29.72,West,271,0.0,-999.0,52,-99.99,,,-99.99,,2013-03-31 14:43:00,
2013-03-31 10:52:00,41.0,23.0,29.70,ESE,110,0.0,-999.0,48,-99.99,,,-99.99,,2013-03-31 14:52:00,
2013-03-31 11:03:00,42.0,22.0,29.72,ESE,120,0.0,-999.0,45,-99.99,,,-99.99,,2013-03-31 15:03:00,
2013-03-31 11:13:00,42.0,22.0,29.72,ESE,120,0.0,-999.0,45,-99.99,,,-99.99,,2013-03-31 15:13:00,
2013-03-31 11:23:00,45.0,23.0,29.68,ESE,107,2.0,-999.0,41,-99.99,,,-99.99,,2013-03-31 15:23:00,
2013-03-31 11:33:00,45.0,22.0,29.71,South,190,2.0,-999.0,40,-99.99,,,-99.99,,2013-03-31 15:33:00,
2013-03-31 11:43:00,45.0,22.0,29.71,South,190,2.0,-999.0,40,-99.99,,,-99.99,,2013-03-31 15:43:00,
2013-03-31 11:54:00,47.0,23.0,29.70,East,95,3.0,-999.0,39,-99.99,,,-99.99,,2013-03-31 15:54:00,
2013-03-31 12:03:00,47.0,23.0,29.70,East,95,3.0,-999.0,39,-99.99,,,-99.99,,2013-03-31 16:03:00,
2013-03-31 12:13:00,47.0,23.0,29.70,East,95,3.0,-999.0,39,-99.99,,,-99.99,,2013-03-31 16:13:00,
2013-03-31 12:23:00,50.0,22.0,29.66,East,91,6.0,-999.0,33,-99.99,,,-99.99,,2013-03-31 16:23:00,
2013-03-31 12:33:00,49.0,21.0,29.69,ENE,58,5.0,-999.0,33,-99.99,,,-99.99,,2013-03-31 16:33:00,
2013-03-31 12:43:00,49.0,21.0,29.69,ENE,58,5.0,-999.0,33,-99.99,,,-99.99,,2013-03-31 16:43:00,
2013-03-31 12:53:00,50.0,23.0,29.65,ESE,106,5.0,-999.0,34,-99.99,,,-99.99,,2013-03-31 16:53:00,
2013-03-31 13:03:00,50.0,21.0,29.67,ENE,72,4.0,-999.0,32,-99.99,,,-99.99,,2013-03-31 17:03:00,
2013-03-31 13:13:00,50.0,21.0,29.67,ENE,72,4.0,-999.0,32,-99.99,,,-99.99,,2013-03-31 17:13:00,
2013-03-31 13:23:00,51.0,21.0,29.63,East,93,4.0,-999.0,31,-99.99,,,-99.99,,2013-03-31 17:23:00,
2013-03-31 13:32:00,51.0,23.0,29.65,ENE,78,3.0,-999.0,33,-99.99,,,-99.99,,2013-03-31 17:32:00,
2013-03-31 13:43:00,51.0,23.0,29.65,ENE,78,3.0,-999.0,33,-99.99,,,-99.99,,2013-03-31 17:43:00,
2013-03-31 13:52:00,52.0,23.0,29.61,ENE,72,3.0,-999.0,32,-99.99,,,-99.99,,2013-03-31 17:52:00,
2013-03-31 14:03:00,52.0,22.0,29.63,ESE,104,3.0,-999.0,31,-99.99,,,-99.99,,2013-03-31 18:03:00,
2013-03-31 14:13:00,52.0,22.0,29.63,ESE,104,3.0,-999.0,31,-99.99,,,-99.99,,2013-03-31 18:13:00,
2013-03-31 14:22:00,53.0,24.0,29.59,East,83,4.0,-999.0,32,-99.99,,,-99.99,,2013-03-31 18:22:00,
2013-03-31 14:33:00,53.0,23.0,29.61,North,10,3.0,-999.0,31,-99.99,,,-99.99,,2013-03-31 18:33:00,
2013-03-31 14:42:00,53.0,23.0,29.61,North,10,3.0,-999.0,31,-99.99,,,-99.99,,2013-03-31 18:42:00,
2013-03-31 14:53:00,54.0,24.0,29.57,East,86,4.0,-999.0,31,-99.99,,,-99.99,,2013-03-31 18:53:00,
2013-03-31 15:03:00,54.0,22.0,29.60,West,268,5.0,-999.0,29,-99.99,,,-99.99,,2013-03-31 19:03:00,
2013-03-31 15:12:00,54.0,22.0,29.60,West,268,5.0,-999.0,29,-99.99,,,-99.99,,2013-03-31 19:12:00,
2013-03-31 15:22:00,55.0,23.0,29.56,ENE,62,4.0,-999.0,29,-99.99,,,-99.99,,2013-03-31 19:22:00,
2013-03-31 15:33:00,55.0,23.0,29.58,East,90,3.0,-999.0,29,-99.99,,,-99.99,,2013-03-31 19:33:00,
2013-03-31 15:43:00,55.0,23.0,29.58,East,90,3.0,-999.0,29,-99.99,,,-99.99,,2013-03-31 19:43:00,
2013-03-31 15:54:00,55.0,23.0,29.55,NNE,32,5.0,-999.0,28,-99.99,,,-99.99,,2013-03-31 19:54:00,
2013-03-31 16:03:00,54.0,22.0,29.57,ENE,78,5.0,-999.0,28,-99.99,,,-99.99,,2013-03-31 20:03:00,
2013-03-31 16:13:00,54.0,22.0,29.57,ENE,78,5.0,-999.0,28,-99.99,,,-99.99,,2013-03-31 20:13:00,
2013-03-31 16:23:00,53.0,22.0,29.54,East,98,7.0,-999.0,29,-99.99,,,-99.99,,2013-03-31 20:23:00,
2013-03-31 16:34:00,53.0,22.0,29.57,East,99,5.0,-999.0,29,-99.99,,,-99.99,,2013-03-31 20:34:00,
2013-03-31 16:43:00,53.0,22.0,29.57,East,99,5.0,-999.0,29,-99.99,,,-99.99,,2013-03-31 20:43:00,
2013-03-31 16:53:00,53.0,21.0,29.54,ENE,76,6.0,-999.0,28,-99.99,,,-99.99,,2013-03-31 20:53:00,
2013-03-31 17:03:00,53.0,22.0,29.55,ENE,71,3.0,-999.0,30,-99.99,,,-99.99,,2013-03-31 21:03:00,
2013-03-31 17:13:00,53.0,22.0,29.55,ENE,71,3.0,-999.0,30,-99.99,,,-99.99,,2013-03-31 21:13:00,
2013-03-31 17:22:00,53.0,23.0,29.55,ENE,76,4.0,-999.0,31,-99.99,,,-99.99,,2013-03-31 21:22:00,
2013-03-31 17:34:00,52.0,22.0,29.54,ESE,105,5.0,-999.0,31,-99.99,,,-99.99,,2013-03-31 21:34:00,
2013-03-31 17:43:00,52.0,22.0,29.54,ESE,105,5.0,-999.0,31,-99.99,,,-99.99,,2013-03-31 21:43:00,
2013-03-31 17:54:00,53.0,24.0,29.51,North,359,5.0,-999.0,32,-99.99,,,-99.99,,2013-03-31 21:54:00,
2013-03-31 18:04:00,52.0,23.0,29.54,East,89,4.0,-999.0,32,-99.99,,,-99.99,,2013-03-31 22:04:00,
2013-03-31 18:13:00,52.0,23.0,29.54,East,89,4.0,-999.0,32,-99.99,,,-99.99,,2013-03-31 22:13:00,
2013-03-31 18:24:00,52.0,23.0,29.51,East,87,3.0,-999.0,32,-99.99,,,-99.99,,2013-03-31 22:24:00,
2013-03-31 18:33:00,51.0,23.0,29.53,NNE,20,2.0,-999.0,33,-99.99,,,-99.99,,2013-03-31 22:33:00,
2013-03-31 18:43:00,51.0,23.0,29.53,NNE,20,2.0,-999.0,33,-99.99,,,-99.99,,2013-03-31 22:43:00,
2013-03-31 18:53:00,51.0,23.0,29.50,East,83,3.0,-999.0,33,-99.99,,,-99.99,,2013-03-31 22:53:00,
2013-03-31 19:03:00,50.0,22.0,29.52,ESE,103,3.0,-999.0,33,-99.99,,,-99.99,,2013-03-31 23:03:00,
2013-03-31 19:13:00,50.0,22.0,29.52,ESE,103,3.0,-999.0,33,-99.99,,,-99.99,,2013-03-31 23:13:00,
2013-03-31 19:22:00,50.0,23.0,29.49,NNE,33,1.0,-999.0,35,-99.99,,,-99.99,,2013-03-31 23:22:00,
2013-03-31 19:32:00,49.0,23.0,29.52,East,97,1.0,-999.0,35,-99.99,,,-99.99,,2013-03-31 23:32:00,
2013-03-31 19:43:00,49.0,23.0,29.52,East,97,1.0,-999.0,35,-99.99,,,-99.99,,2013-03-31 23:43:00,
2013-03-31 19:53:00,50.0,23.0,29.49,NE,52,1.0,-999.0,34,-99.99,,,-99.99,,2013-03-31 23:53:00,
2013-03-31 20:02:00,49.0,24.0,29.51,ESE,102,0.0,-999.0,37,-99.99,,,-99.99,,2013-04-01 00:02:00,
2013-03-31 20:13:00,49.0,24.0,29.51,ESE,102,0.0,-999.0,37,-99.99,,,-99.99,,2013-04-01 00:13:00,
2013-03-31 20:22:00,49.0,23.0,29.47,ENE,66,0.0,-999.0,36,-99.99,,,-99.99,,2013-04-01 00:22:00,
2013-03-31 20:32:00,49.0,23.0,29.50,NNE,33,0.0,-999.0,36,-99.99,,,-99.99,,2013-04-01 00:32:00,
2013-03-31 20:43:00,49.0,23.0,29.50,NNE,33,0.0,-999.0,36,-99.99,,,-99.99,,2013-04-01 00:43:00,
2013-03-31 20:53:00,49.0,25.0,29.47,East,89,1.0,-999.0,39,-99.99,,,-99.99,,2013-04-01 00:53:00,
2013-03-31 21:03:00,48.0,24.0,29.49,NE,50,1.0,-999.0,39,-99.99,,,-99.99,,2013-04-01 01:03:00,
2013-03-31 21:13:00,48.0,24.0,29.49,NE,50,1.0,-999.0,39,-99.99,,,-99.99,,2013-04-01 01:13:00,
2013-03-31 21:23:00,48.0,25.0,29.47,ENE,74,1.0,-999.0,40,-99.99,,,-99.99,,2013-04-01 01:23:00,
2013-03-31 21:33:00,48.0,25.0,29.49,NNE,15,2.0,-999.0,41,-99.99,,,-99.99,,2013-04-01 01:33:00,
2013-03-31 21:43:00,48.0,25.0,29.49,NNE,15,2.0,-999.0,41,-99.99,,,-99.99,,2013-04-01 01:43:00,
2013-03-31 21:53:00,48.0,26.0,29.47,NE,48,1.0,-999.0,42,-99.99,,,-99.99,,2013-04-01 01:53:00,
2013-03-31 22:03:00,47.0,26.0,29.48,East,80,2.0,-999.0,43,-99.99,,,-99.99,,2013-04-01 02:03:00,
2013-03-31 22:23:00,48.0,27.0,29.46,East,88,3.0,-999.0,44,-99.99,,,-99.99,,2013-04-01 02:23:00,
2013-03-31 22:33:00,46.0,30.0,29.49,East,95,6.0,-999.0,53,-99.99,,,-99.99,,2013-04-01 02:33:00,
2013-03-31 22:42:00,46.0,30.0,29.49,East,95,6.0,-999.0,53,-99.99,,,-99.99,,2013-04-01 02:42:00,
2013-03-31 22:53:00,46.0,31.0,29.48,ENE,67,3.0,-999.0,56,-99.99,,,-99.99,,2013-04-01 02:53:00,
2013-03-31 23:03:00,46.0,31.0,29.48,ENE,67,3.0,-999.0,56,-99.99,,,-99.99,,2013-04-01 03:03:00,
2013-03-31 23:12:00,46.0,31.0,29.48,ENE,67,3.0,-999.0,56,-99.99,,,-99.99,,2013-04-01 03:12:00,
2013-03-31 23:23:00,44.0,35.0,29.45,East,81,5.0,-999.0,71,-99.99,,,-99.99,,2013-04-01 03:23:00,
2013-03-31 23:34:00,43.0,35.0,29.47,ESE,107,4.0,-999.0,73,-99.99,,,-99.99,,2013-04-01 03:34:00,
2013-03-31 23:43:00,43.0,35.0,29.47,ESE,107,4.0,-999.0,73,-99.99,,,-99.99,,2013-04-01 03:43:00,
2013-03-31 23:53:00,42.0,37.0,29.44,East,83,1.0,-999.0,82,-99.99,,,-99.99,,2013-04-01 03:53:00,